Regional Weather Roundup
Issued by NWS

Home | Current Version | Previous Version | Graphics & Text | Print | Product List | Glossary On
Versions: 1 2 3 4 5 6 7 8 9 10 11 12 13 14 15 16 17 18 19 20 21 22 23 24 25 26 27 28 29 30 31 32 33 34 35 36 37 38 39 40 41 42 43 44 45 46 47 48 49 50
000
ASUS43 KMPX 241710
RWRMN
WEATHER ROUNDUP FOR MINNESOTA
NATIONAL WEATHER SERVICE TWIN CITIES/CHANHASSEN MN
1200 PM CDT THU APR 24 2014


NOTE: "FAIR" INDICATES FEW OR NO CLOUDS BELOW 12,000 FEET WITH NO
SIGNIFICANT WEATHER AND/OR OBSTRUCTIONS TO VISIBILITY. N/A MEANS
CURRENT SKY AND/OR WEATHER CONDITIONS ARE NOT AVAILABLE.

MNZ060>063-068>070-241800-
   Twin Cities Metro

CITY           SKY/WX    TMP DP  RH WIND       PRES   REMARKS
TWIN CITIES    LGT RAIN  41  40  96 E12       29.74F FOG
ST PAUL        LGT RAIN  41  39  93 E7        29.76F
CRYSTAL        LGT RAIN  41  38  89 E5        29.73F FOG
BLAINE         LGT RAIN  43  41  93 E8        29.75F FOG
EDEN PRAIRIE   LGT RAIN  42  40  92 E7        29.73S FOG
LAKEVILLE      DRIZZLE   39  39 100 E8        29.73S
SOUTH ST PAUL  CLOUDY    43  42  96 E5        29.74F
LAKE ELMO      RAIN      41  39  93 E6        29.76F
$$
MNZ001>005-007-008-013>017-022>024-027-028-241800-
   Northwest Minnesota

CITY           SKY/WX    TMP DP  RH WIND       PRES   REMARKS
BEMIDJI        CLOUDY    37  36  99 SE7       29.78F FOG
HALLOCK        CLOUDY    41  37  87 SE13      29.76S
ROSEAU         LGT RAIN  39  34  81 SE6       29.81S
WARROAD        MIX PCPN  37  36  93 SE9       29.82S
THIEF RVR FALL CLOUDY    37  34  87 SE13      29.79S
CROOKSTON      MIX PCPN  41  39  93 SE9       29.76F
FOSSTON        RAIN      37  37 100 CALM      29.78F
DETROIT LAKES  MIX PCPN  37  36  93 S7        29.77F
MOORHEAD       LGT RAIN  43  43 100 CALM      29.76F
PARK RAPIDS    LGT RAIN  38  37  97 SE8       29.76F FOG
$$
MNZ006-009>011-018-025>026-241800-
   North Central Minnesota

CITY           SKY/WX    TMP DP  RH WIND       PRES   REMARKS
BAUDETTE       LGT RAIN  39  37  92 SE9       29.82F FOG
FLAG ISLAND    DRIZZLE   37  36  93 E9G16     29.82F
INTL FALLS     LGT RAIN  39  36  89 SE13      29.85F
WASKISH        DRIZZLE   37  37 100 E8        29.81F
BIG FORK       CLOUDY    37  36  93 SE9       29.83F
LONGVILLE      LGT RAIN  37  37 100 E5        29.78F
GRAND RAPIDS   CLOUDY    36  34  93 SE9       29.81F
CRANE LAKE     RAIN      37  37 100 SE5       29.91F
ORR            LGT SNOW  36  34  93 SE7       29.85S
COOK           DRIZZLE   36  36 100 E7        29.87F
$$
MNZ012-019>021-037-241800-
   Northeast Minnesota

CITY           SKY/WX    TMP DP  RH WIND       PRES   REMARKS
DULUTH         SNOW      33  31  92 E17       29.85F VSB 1/2 WCI  22
ELY            CLOUDY    37  32  81 E15G26    29.90F
HIBBING        LGT RAIN  38  34  85 E12       29.84F
EVELETH        DRIZZLE   36  36 100 E12       29.87F
DULUTH HARBOR  MIX PCPN  34  32  93 NE17      29.89F WCI  23
TWO HARBORS    LGT SNOW  34  28  80 E14G22    29.89F WCI  24
SILVER BAY     MIX PCPN  32  32 100 NE13      29.93S WCI  22
GRAND MARAIS     N/A     38  27  64 E13G21    30.01S
G MARAIS ARPRT CLOUDY    36  19  51 E10G18    29.98S
$$
MNZ029>031-032-039>041-046>048-054>057-064-241800-
   West Central Minnesota

CITY           SKY/WX    TMP DP  RH WIND       PRES   REMARKS
FERGUS FALLS   LGT RAIN  39  37  93 SE14      29.71F
WHEATON        LGT RAIN  45  43  93 E9        29.73F
MORRIS         LGT RAIN  43  41  93 NE6       29.73F
ALEXANDRIA     RAIN      40  37  89 S5        29.75F FOG
ELBOW LAKE     LGT RAIN  40  39  96 E8        29.74F
WADENA         RAIN      39  36  87 SE8       29.75F
GLENWOOD       RAIN      41  39  93 CALM      29.75S
APPLETON       LGT RAIN  45  43  93 NE10      29.71F
BENSON         RAIN      43  41  93 NE5       29.74S
ORTONVILLE     DRIZZLE   43  39  87 E7        29.71F
MADISON        CLOUDY    46  45  93 NE6       29.72F
WILLMAR        LGT RAIN  43  41  93 E6        29.73F
$$
MNZ033>034-036-042>043-049>051-058-059-241800-
   Central Minnesota

CITY           SKY/WX    TMP DP  RH WIND       PRES   REMARKS
ST CLOUD       LGT RAIN  41  38  89 E8        29.75F
SAUK CENTRE    RAIN      40  39  95 E5        29.74F
PAYNESVILLE    LGT RAIN  41  39  94 CALM      29.74F
AITKIN         LGT RAIN  39  34  81 E6        29.77F
PINE RIVER     RAIN      37  37 100 SE10      29.81F
BRAINERD       LGT RAIN  42  36  79 VRB6      29.77F
STAPLES        HVY RAIN  37  37 100 CALM      29.76F
LONG PRAIRIE   CLOUDY    39  37  93 CALM      29.76S
LITTLE FALLS   MIX PCPN  37  36  93 SE8       29.75F
LITCHFIELD     DRIZZLE   43  43 100 E7        29.73F
BUFFALO        LGT RAIN  40  38  91 E7        29.76R
MAPLE LAKE     LGT RAIN  41  40  97 E7        29.75S
$$
MNZ037-044-045-052-053-241800-
   East Central Minnesota

CITY           SKY/WX    TMP DP  RH WIND       PRES   REMARKS
PRINCETON      LGT RAIN  41  39  93 E7G16     29.76F
MORA           LGT RAIN  37  34  87 E6        29.79F
CAMBRIDGE      RAIN      41  36  81 E6        29.75F
RUSH CITY      LGT RAIN  40  38  93 E6        29.78F
MOOSE LAKE     LGT RAIN  34  34 100 E5        29.80F WCI  30
HINCKLEY       LGT RAIN  37  37 100 E8        29.79F
CLOQUET        LGT SNOW  34  34 100 E13       29.83F WCI  25
MCGREGOR       CLOUDY    36  34  93 E8        29.80F
$$
MNZ071>073-080-081-089-090-097-098-241800-
   Southwest Minnesota

CITY           SKY/WX    TMP DP  RH WIND       PRES   REMARKS
MONTEVIDEO     LGT RAIN  43  43 100 NE5       29.73F
GRANITE FALLS  LGT RAIN  44  42  93 W8        29.74R
CANBY          CLOUDY    44  42  94 NW6       29.73S
MARSHALL       CLOUDY    45  39  81 N15       29.70F
REDWOOD FALLS  LGT RAIN  44  42  93 E5        29.70F FOG
OLIVIA         LGT RAIN  43  41  93 E5        29.71F
PIPESTONE      CLOUDY    48  45  87 N12G17    29.71R
WINDOM         DRIZZLE   45  43  93 NW5       29.69S
WORTHINGTON    CLOUDY    46  39  76 N20       29.71R
JACKSON        CLOUDY    45  41  87 NW6       29.69S FOG
TRACY          LGT RAIN  45  43  93 N12       29.70F
SLAYTON        CLOUDY    44  42  94 N18       29.70R
$$
MNZ065>067-074>077-082>085-091>093-241800-
   South Central Minnesota

CITY           SKY/WX    TMP DP  RH WIND       PRES   REMARKS
MANKATO        CLOUDY    43  39  87 SE8       29.71S
NEW ULM          N/A     43  43 100 E5        29.71S FOG
ST JAMES       CLOUDY    43  41  93 NE3       29.71S FOG
FAIRMONT       CLOUDY    43  39  87 N3        29.70F
GLENCOE        CLOUDY    42  39  88 E7        29.72S
FARIBAULT      DRIZZLE   45  39  81 E7        29.72S
OWATONNA       MIX PCPN  43  39  87 SE7       29.70S
WASECA         RAIN      41  36  81 SE5       29.72S
ALBERT LEA     CLOUDY    43  43 100 SE7       29.67F FOG
$$
MNZ078>079-086>088-094>096-241800-
   Southeast Minnesota

CITY           SKY/WX    TMP DP  RH WIND       PRES   REMARKS
ROCHESTER      LGT RAIN  41  38  89 SE18      29.70S FOG
RED WING       LGT RAIN  43  39  87 SE13G18   29.74R
STANTON        DRIZZLE   42  39  88 SE3       29.72S
DODGE CENTER   LGT RAIN  43  43 100 SE13      29.70R
WINONA         CLOUDY    41  39  93 SE12G18   29.75F
AUSTIN         LGT RAIN  43  39  87 SE9G16    29.68S
PRESTON        LGT RAIN  42  39  91 SE15G22   29.71F
$$
ABBREVIATIONS USED IN REMARKS
   TC - TEMPERATURES IN CELSIUS
  WCI - WIND CHILL INDEX
   HX - HEAT INDEX
  VSB - VISIBILITY
$$


USA.gov is the U.S. government's official web portal to all federal, state and local government web resources and services.